Location: *
(13.0000°N, 151.6000°E)
Time: 15:58:30
(UTC+00:00)

ALOS - Pass Details

Date: 01 April 2020
Orbit: 683 x 686 km, 97.8° (Epoch: 04 June)

Event Time Altitude Azimuth Distance (km) Brightness Sun altitude
Rises 18:11:45 0° 25° (NNE) 3,041 6.1 -24.3°
Reaches altitude 10° 18:14:08 10° 34° (NNE) 2,125 5.4 -23.8°
Maximum altitude 18:18:24 36° 100° (E) 1,080 3.8 -22.7°
Drops below altitude 10° 18:22:40 10° 167° (SSE) 2,123 4.8 -21.7°
Sets 18:25:02 0° 175° (S) 3,037 5.5 -21.2°
